Location: Bailey Volunteer Fire Department
(33.4359°N, 96.1680°W)
Time: 16:48:23
(UTC+00:00)

Cosmos 1602 Rocket - Pass Details

Date: 13 December 2025
Orbit: 596 x 626 km, 82.5° (Epoch: 13 January)

Event Time Altitude Azimuth Distance (km) Brightness Sun altitude
Rises 23:48:35 0° 347° (NNW) 2,878 6.9 -6.6°
Reaches altitude 10° 23:50:51 10° 343° (NNW) 1,965 6.1 -7.0°
Maximum altitude 23:55:05 53° 267° (W) 746 4.5 -7.8°
Drops below altitude 10° 23:59:15 10° 190° (S) 1,935 6.6 -8.7°
Sets 00:01:28 0° 186° (S) 2,830 7.4 -9.1°
